"TOA5","AWS1","CR1000","7964","CR1000.Std.14","CPU:AWS1_114.CR1","64363","TBL110"
"TIMESTAMP","RECORD","Wind_spd_WVc(1)","Wind_spd_WVc(2)","Air_Temp_Avg","Humidity_Avg","SW_upper_Wm2_Avg","Rain_Tot","Press_Avg","Issui_Tot","Depth_cm","SR50A_Raw","Quality","Ground_Temp_Avg(1)","Ground_Temp_Avg(2)","SW_lower_Wm2_Avg","Albedo_Avg","SWC_per(1)","SWC_per(2)","Period(1)","Period(2)"
"TS","RN","","","","","","","","","","","","","","","","","","",""
"","","WVc","WVc","Avg","Avg","Avg","Tot","Avg","Tot","Smp","Smp","Smp","Avg","Avg","Avg","Avg","Smp","Smp","Smp","Smp"
"2017-01-10 00:00:00",270061,1.737,305.3,-2.668,97.3,0.03146375,0,857.8507,0.5,26.33,2.931,185,2.152,2.877,0,0,50.83,58.15,33.5,35.25
"2017-01-10 00:10:00",270062,0.965,279.9,-2.677,96.7,0,0,857.8928,0,26.22,2.933,184,2.147,2.88,0,0,50.83,58.15,33.5,35.25
"2017-01-10 00:20:00",270063,1.109,310.2,-2.781,96.7,0,0,857.9666,0,26.62,2.929,175,2.162,2.876,0,0,50.83,58.15,33.5,35.25
"2017-01-10 00:30:00",270064,0.547,297.3,-2.85,96.6,0,0,857.9793,0,26.62,2.929,180,2.148,2.868,0,0,50.83,58.15,33.5,35.25
"2017-01-10 00:40:00",270065,0.661,206.9,-2.878,95.6,0,0,858.0425,0,26.57,2.93,177,2.152,2.868,0,0,50.83,58.15,33.5,35.25
"2017-01-10 00:50:00",270066,0.88,300.2,-2.952,96,0,0,858.2933,0,26.76,2.929,192,2.17,2.871,0.00379213,0,50.83,58.15,33.5,35.25
"2017-01-10 01:00:00",270067,0.943,274.2,-2.987,91.8,0,0,858.2575,0,26.71,2.929,192,2.162,2.863,0.04929769,0,50.83,58.21,33.5,35.26
"2017-01-10 01:10:00",270068,0.515,246.4,-3.069,90,0,0,858.2322,0,26.61,2.931,192,2.166,2.871,0,0,50.83,58.15,33.5,35.25
"2017-01-10 01:20:00",270069,0.517,235.5,-3.163,90.3,0,0,858.4156,0,26.56,2.931,190,2.149,2.88,0,0,50.83,58.15,33.5,35.25
"2017-01-10 01:30:00",270070,0.662,278.8,-3.159,89.2,0,0,858.5989,0,26.75,2.93,192,2.159,2.883,0.1820223,0,50.83,58.15,33.5,35.25
"2017-01-10 01:40:00",270071,0.849,293.9,-3.195,88.2,0,0,858.6895,0,26.51,2.932,192,2.153,2.881,0.1706459,0,50.83,58.21,33.5,35.26
"2017-01-10 01:50:00",270072,0.925,198,-3.349,89.6,0,0,858.658,0,26.6,2.932,192,2.172,2.891,0,0,50.83,58.15,33.5,35.25
"2017-01-10 02:00:00",270073,0.241,204.1,-3.321,91.5,0,0,858.738,0,26.53,2.933,192,2.176,2.898,0,0,50.77,58.15,33.49,35.25
"2017-01-10 02:10:00",270074,0.389,230.2,-3.354,92,0,0,858.5736,0,26.4,2.934,193,2.159,2.89,0,0,50.83,58.15,33.5,35.25
"2017-01-10 02:20:00",270075,0.389,187.5,-3.491,93.5,0,0,858.5652,0,26.3,2.936,193,2.151,2.908,0,0,50.77,58.15,33.49,35.25
"2017-01-10 02:30:00",270076,0.14,207.9,-3.627,94.6,0,0,858.7001,0,26.39,2.936,192,2.169,2.921,0,0,50.83,58.15,33.5,35.25
"2017-01-10 02:40:00",270077,0.144,237.7,-3.815,95,0,0,858.7401,0,26.33,2.938,193,2.193,2.912,0,0,50.83,58.21,33.5,35.26
"2017-01-10 02:50:00",270078,0.339,326.7,-3.844,95.8,0,0,858.7422,0,26.37,2.936,193,2.206,2.903,0.1896065,0,50.83,58.21,33.5,35.26
"2017-01-10 03:00:00",270079,0.657,307.8,-3.7,95.6,0,0,858.9719,0,26.49,2.935,193,2.18,2.917,0.2692412,0,50.83,58.15,33.5,35.25
"2017-01-10 03:10:00",270080,0.574,286,-3.67,94.1,0,0,858.8412,0,26.35,2.936,192,2.169,2.919,0.2882019,0,50.83,58.21,33.5,35.26
"2017-01-10 03:20:00",270081,0.161,298.1,-3.631,92,0,0,858.738,0,26.37,2.936,192,2.168,2.921,0.2009829,0,50.83,58.15,33.5,35.25
"2017-01-10 03:30:00",270082,0.512,303.1,-3.631,91.4,0,0,858.7844,0,26.39,2.936,193,2.163,2.921,0.1933987,0,50.88,58.15,33.52,35.25
"2017-01-10 03:40:00",270083,0.452,294.6,-3.7,91.9,0,0,858.7886,0,26.32,2.937,193,2.159,2.917,0.09101113,0,50.83,58.15,33.5,35.25
"2017-01-10 03:50:00",270084,0.403,189.5,-3.716,94.4,0,0,858.8582,0,26.17,2.938,188,2.149,2.916,0.03412917,0,50.83,58.15,33.5,35.25
"2017-01-10 04:00:00",270085,0.321,149.8,-3.737,95.2,0,0,858.7738,0,26.24,2.938,188,2.168,2.918,0,0,50.83,58.15,33.5,35.25
"2017-01-10 04:10:00",270086,0.675,207.4,-3.753,94.8,0,0,858.8223,0,26.09,2.939,185,2.18,2.911,0.05308982,0,50.83,58.15,33.5,35.25
"2017-01-10 04:20:00",270087,0.39,180.8,-3.7,93.9,0,0,858.7296,0,26.14,2.939,193,2.156,2.919,0.09859539,0,50.83,58.15,33.5,35.25
"2017-01-10 04:30:00",270088,0.518,188.9,-3.791,93.4,0,0,858.601,0,26.04,2.94,181,2.147,2.922,0,0,50.83,58.15,33.5,35.25
"2017-01-10 04:40:00",270089,0.733,202.6,-3.785,91.7,0,0,858.6748,0,25.9,2.941,180,2.15,2.917,0.07205047,0,50.83,58.15,33.5,35.25
"2017-01-10 04:50:00",270090,0.076,224.8,-3.757,91.7,0,0,858.738,0,25.89,2.942,177,2.165,2.92,0.007584261,0,50.83,58.15,33.5,35.25
"2017-01-10 05:00:00",270091,0.387,201.7,-3.977,92.4,0,0,858.738,0,26.08,2.941,185,2.178,2.916,0,0,50.83,58.15,33.5,35.25
"2017-01-10 05:10:00",270092,0.557,261.8,-3.971,92.3,0,0,858.8813,0,25.99,2.941,181,2.166,2.919,0.06067409,0,50.83,58.15,33.5,35.25
"2017-01-10 05:20:00",270093,0.177,204,-3.834,89.4,0,0,858.9488,0,25.76,2.944,178,2.151,2.912,0.08342686,0,50.83,58.15,33.5,35.25
"2017-01-10 05:30:00",270094,0.546,279.5,-4.062,93.2,0,0,859.0247,0,25.73,2.945,171,2.159,2.917,0,0,50.83,58.15,33.5,35.25
"2017-01-10 05:40:00",270095,0.27,190.2,-4.237,93.4,0,0,859.1807,0,25.77,2.946,176,2.181,2.895,0,0,50.83,58.15,33.5,35.25
"2017-01-10 05:50:00",270096,0.423,178.2,-4.367,99,0,0,859.383,0,25.85,2.945,177,2.174,2.887,0.04550556,0,50.83,58.15,33.5,35.25
"2017-01-10 06:00:00",270097,0.69,199.4,-4.175,99.7,0,0,859.4905,0,25.79,2.944,190,2.17,2.896,0.1327246,0,50.83,58.15,33.5,35.25
"2017-01-10 06:10:00",270098,0.164,260,-4.034,92.7,0,0,859.5263,0,25.54,2.946,176,2.153,2.907,0.01137639,0,50.83,58.09,33.5,35.24
"2017-01-10 06:20:00",270099,0.212,272.3,-4.009,87.4,0,0,859.6401,0,25.84,2.943,181,2.178,2.906,0.06067409,0,50.83,58.09,33.5,35.24
"2017-01-10 06:30:00",270100,0.174,281.1,-3.97,87.5,0,0,859.9183,0,25.76,2.944,176,2.169,2.89,0.4057579,0,50.88,58.15,33.52,35.25
"2017-01-10 06:40:00",270101,0.539,309.9,-3.699,80.4,0,0,859.9984,0,25.65,2.943,177,2.164,2.914,0.6143251,0,50.83,58.15,33.5,35.25
"2017-01-10 06:50:00",270102,0.048,334.2,-3.755,81.8,0,0,859.9984,0,25.54,2.946,172,2.164,2.91,0.4171343,0,50.83,58.15,33.5,35.25
"2017-01-10 07:00:00",270103,0.108,31.79,-3.938,83.8,0.01573188,0,860.0027,0,25.49,2.947,190,2.149,2.9,1.126263,0.386,50.77,58.09,33.49,35.24
"2017-01-10 07:10:00",270104,0.153,199.2,-4.182,88,0.6214091,0,860.0069,0,25.94,2.942,177,2.144,2.906,2.499014,4.291,50.83,58.15,33.5,35.25
"2017-01-10 07:20:00",270105,0.23,293.8,-3.753,78.68,1.935021,0,860.0406,0,25.5,2.945,184,2.16,2.919,6.143251,3.548,50.83,58.15,33.5,35.25
"2017-01-10 07:30:00",270106,0.246,229.4,-3.859,81.7,5.588748,0,860.2556,0,25.41,2.948,195,2.157,2.919,11.82765,2.135,50.83,58.15,33.5,35.25
"2017-01-10 07:40:00",270107,0.31,180.9,-3.896,79.64,8.247436,0,860.2977,0,25.49,2.946,189,2.173,2.915,16.85223,2.04,50.83,58.15,33.5,35.25
"2017-01-10 07:50:00",270108,0.482,174.7,-4.082,81,10.22179,0,860.2725,0,25.41,2.949,185,2.18,2.923,18.85826,1.844,50.83,58.15,33.5,35.25
"2017-01-10 08:00:00",270109,0.531,169.7,-4.192,79.37,15.42904,0,860.2387,0,25.48,2.948,184,2.181,2.917,28.64954,1.846,50.83,58.15,33.5,35.25
"2017-01-10 08:10:00",270110,0.276,158.5,-4.044,79.29,18.81139,0,860.1776,0,25.49,2.947,180,2.19,2.906,41.65655,2.215,50.83,58.15,33.5,35.25
"2017-01-10 08:20:00",270111,0.435,157.7,-3.78,76.9,22.23701,0,860.2725,0,25.63,2.943,176,2.184,2.859,47.73154,2.153,50.83,58.15,33.5,35.25
"2017-01-10 08:30:00",270112,0.459,154.7,-3.406,75.1,23.23991,0,860.2387,0,25.46,2.944,176,2.155,2.865,54.13266,2.33,50.83,58.09,33.5,35.24
"2017-01-10 08:40:00",270113,0.41,154.9,-3.304,73.78,28.94665,0,860.2598,0,25.52,2.942,180,2.149,2.875,57.37493,2.003,50.83,58.15,33.5,35.25
"2017-01-10 08:50:00",270114,0.294,132.2,-2.907,71.18,28.30164,0,860.4832,0,25.08,2.944,180,2.149,2.875,61.5349,2.174,50.83,58.15,33.5,35.25
"2017-01-10 09:00:00",270115,0.496,23.78,-2.759,67.77,29.98889,0,860.5085,0,25.04,2.943,175,2.15,2.845,63.35512,2.115,50.83,58.15,33.5,35.25
"2017-01-10 09:10:00",270116,0.579,191,-2.708,68.53,29.8355,0,860.5085,0.5,25.24,2.942,174,2.128,2.841,61.33771,2.054,50.77,58.15,33.49,35.25
"2017-01-10 09:20:00",270117,1.049,95.3,-2.616,67.63,32.45879,0,860.5085,0,25.39,2.939,179,2.127,2.841,61.6297,1.903,50.83,58.09,33.5,35.24
"2017-01-10 09:30:00",270118,0.96,22.22,-2.428,65.81,36.14791,0,860.5085,0,25.39,2.939,174,2.147,2.828,71.03418,1.965,50.83,58.15,33.5,35.25
"2017-01-10 09:40:00",270119,0.853,97.8,-2.061,67.88,44.21444,0,860.5085,0,25.41,2.936,179,2.15,2.815,87.56787,1.981,50.83,58.15,33.5,35.25
"2017-01-10 09:50:00",270120,0.665,333,-1.657,65.88,50.29087,0,860.5106,0,25.45,2.934,185,2.151,2.838,90.58641,1.83,50.83,58.15,33.5,35.25
"2017-01-10 10:00:00",270121,1.079,320.5,-1.771,66.13,52.12757,0,860.5085,0,24.56,2.945,180,2.156,2.842,86.37714,1.65,50.83,58.09,33.5,35.24
"2017-01-10 10:10:00",270122,0.841,315.2,-1.892,66.75,56.45777,0,860.5148,0,25.6,2.933,182,2.167,2.842,95.9409,1.702,50.83,58.15,33.5,35.25
"2017-01-10 10:20:00",270123,0.487,147.3,-1.309,67.48,69.53882,0,860.5085,0,25.35,2.932,182,2.223,2.842,110.5671,1.583,50.83,58.15,33.5,35.25
"2017-01-10 10:30:00",270124,0.559,151,-0.95,66.77,64.7524,0,860.3146,0,25.31,2.931,181,2.221,2.843,102.361,1.592,50.83,58.15,33.5,35.25
"2017-01-10 10:40:00",270125,0.897,137.6,-0.816,67.37,157.8291,0,860.049,0,25.18,2.93,186,2.188,2.851,105.895,1.256,50.83,58.15,33.5,35.25
"2017-01-10 10:50:00",270126,0.476,73.23,-0.914,65.02,227.5461,0,859.7842,0,25.34,2.933,192,2.162,2.867,97.28918,0.739,50.83,58.09,33.5,35.24
"2017-01-10 11:00:00",270127,0.497,313.6,-0.945,63.56,218.3671,0,859.6508,0,25.31,2.932,181,2.14,2.892,117.6627,0.763,50.83,58.09,33.5,35.24
"2017-01-10 11:10:00",270128,0.452,322.8,-1.556,71.32,51.27566,0,859.6757,0,25.34,2.936,187,2.123,2.885,62.28556,1.22,50.83,58.15,33.5,35.25
"2017-01-10 11:20:00",270129,0.349,98.6,-1.547,77.11,69.74963,0,859.5889,0,25.28,2.933,190,2.108,2.878,98.694,1.416,50.83,58.15,33.5,35.25
"2017-01-10 11:30:00",270130,0.632,132.4,-1.034,67.77,74.15555,0,859.4099,0,25.29,2.933,186,2.081,2.857,120.0829,1.618,50.83,58.15,33.5,35.25
"2017-01-10 11:40:00",270131,0.434,107.2,-0.878,70.42,74.54562,0,859.2354,0,25.3,2.932,191,2.073,2.842,119.9376,1.62,50.83,58.15,33.5,35.25
"2017-01-10 11:50:00",270132,0.288,41.81,-0.971,74.93,46.84966,0,859.1887,0,25.15,2.934,190,2.074,2.826,77.53083,1.653,50.83,58.15,33.5,35.25
"2017-01-10 12:00:00",270133,0.419,109.2,-0.956,75.4,62.62706,0,858.9716,0,25.1,2.934,191,2.104,2.798,104.3279,1.666,50.77,58.15,33.49,35.25
"2017-01-10 12:10:00",270134,0.555,136,-1.156,73.06,65.79192,0,858.86,0,25.05,2.935,190,2.125,2.805,106.9017,1.631,50.77,58.15,33.49,35.25
"2017-01-10 12:20:00",270135,0.436,140.5,-1.082,74.23,57.4411,0,858.7335,0,25.05,2.935,192,2.129,2.812,95.58221,1.664,50.83,58.15,33.5,35.25
"2017-01-10 12:30:00",270136,0.567,122.5,-1.043,75.07,53.6746,0,858.6493,0,24.9,2.937,190,2.126,2.805,87.8034,1.638,50.83,58.15,33.5,35.25
"2017-01-10 12:40:00",270137,0.569,134.2,-1.007,75.55,101.326,0,858.5692,0,25.16,2.932,191,2.118,2.804,133.7901,1.406,50.83,58.09,33.5,35.24
"2017-01-10 12:50:00",270138,0.557,139.7,-0.575,74.1,156.7619,0,858.4006,0,24.98,2.932,186,2.145,2.759,179.9776,1.268,50.88,58.15,33.52,35.25
"2017-01-10 13:00:00",270139,0.402,121.5,-0.575,74.73,105.7019,0,858.3965,0,24.92,2.934,191,2.148,2.754,129.2145,1.266,50.83,58.09,33.5,35.24
"2017-01-10 13:10:00",270140,0.345,105.3,-0.507,75.02,112.0396,0,858.3965,0,25.06,2.933,188,2.15,2.757,106.9092,0.961,50.83,58.09,33.5,35.24
"2017-01-10 13:20:00",270141,0.498,35.06,-0.805,76.23,87.44337,0,858.3459,0,25,2.935,186,2.155,2.754,90.69582,1.055,50.83,58.09,33.5,35.24
"2017-01-10 13:30:00",270142,0.468,73.43,-0.47,75.25,115.7826,0,858.1647,0,24.73,2.934,186,2.188,2.769,148.0209,1.34,50.77,58.15,33.49,35.25
"2017-01-10 13:40:00",270143,0.553,50.24,-0.177,74.48,109.0398,0,858.1331,0,24.94,2.931,190,2.17,2.81,148.2218,1.367,50.83,58.15,33.5,35.25
"2017-01-10 13:50:00",270144,0.378,48.33,-0.136,74.47,84.71088,0,858.0994,0,24.95,2.932,187,2.15,2.808,124.0476,1.466,50.83,58.09,33.5,35.24
"2017-01-10 14:00:00",270145,0.531,54.17,-0.125,74.52,94.20184,0,858.1391,0,24.86,2.932,189,2.148,2.827,138.9304,1.479,50.83,58.09,33.5,35.24
"2017-01-10 14:10:00",270146,0.524,61.52,-0.264,75.67,56.20657,0,858.121,0,25.02,2.933,185,2.149,2.845,78.13297,1.407,50.83,58.15,33.5,35.25
"2017-01-10 14:20:00",270147,0.352,50.58,-0.537,76.9,45.61083,0,858.1006,0,24.96,2.934,185,2.15,2.837,64.85746,1.449,50.83,58.15,33.5,35.25
"2017-01-10 14:30:00",270148,0.632,47.29,-0.865,78.25,36.35971,0,858.0977,0,24.9,2.936,187,2.178,2.826,48.87907,1.347,50.83,58.15,33.5,35.25
"2017-01-10 14:40:00",270149,0.477,35.53,-0.877,80,62.01359,0,858.0895,0,25.01,2.934,191,2.199,2.789,80.89649,1.313,50.83,58.15,33.5,35.25
"2017-01-10 14:50:00",270150,0.442,37.93,-0.393,77.64,71.59103,0,858.0964,0,24.82,2.934,186,2.196,2.809,85.85112,1.185,50.83,58.15,33.5,35.25
"2017-01-10 15:00:00",270151,0.313,46.52,-0.437,76.75,58.45153,0,858.1077,0,24.88,2.933,186,2.197,2.809,71.39665,1.222,50.77,58.15,33.49,35.25
"2017-01-10 15:10:00",270152,0.295,28.8,-0.227,75.96,58.4594,0,858.1268,0,24.71,2.934,187,2.193,2.811,68.64829,1.177,50.83,58.09,33.5,35.24
"2017-01-10 15:20:00",270153,0.229,346.6,-0.28,75.69,49.12571,0,857.9373,0,24.67,2.936,190,2.194,2.781,56.84362,1.122,50.77,58.15,33.49,35.25
"2017-01-10 15:30:00",270154,0.346,31.5,-0.476,77.13,61.7659,0,858.0535,0,24.73,2.934,191,2.211,2.755,74.72121,1.205,50.83,58.15,33.5,35.25
"2017-01-10 15:40:00",270155,0.413,43.86,-0.409,76.23,44.19544,0,857.902,0,24.66,2.937,187,2.213,2.768,52.82534,1.177,50.83,58.09,33.5,35.24
"2017-01-10 15:50:00",270156,0.367,63.38,-0.644,76.6,38.41201,0,858.071,0,24.61,2.938,190,2.228,2.758,47.23385,1.254,50.77,58.15,33.49,35.25
"2017-01-10 16:00:00",270157,0.338,50.45,-0.988,78.38,10.25762,0,858.1096,0,24.72,2.939,185,2.196,2.764,15.81538,1.565,50.83,58.09,33.5,35.24
"2017-01-10 16:10:00",270158,0.165,356.2,-1.318,80.6,6.408556,0,858.1435,0,24.78,2.94,187,2.159,2.807,7.972134,1.25,50.83,58.09,33.5,35.24
"2017-01-10 16:20:00",270159,0.159,41.78,-1.412,82,3.849065,0,858.1436,0,24.73,2.941,191,2.145,2.836,4.24953,1.1,50.83,58.15,33.5,35.25
"2017-01-10 16:30:00",270160,0.389,61.11,-1.552,83.2,3.286842,0,858.1436,0,24.68,2.942,186,2.102,2.838,2.824175,0.823,50.83,58.15,33.5,35.25
"2017-01-10 16:40:00",270161,0.367,44.02,-1.711,84.6,2.551627,0,858.1246,0,24.67,2.943,186,2.088,2.838,1.395029,0.474,50.83,58.15,33.5,35.25
"2017-01-10 16:50:00",270162,0.212,352.5,-1.748,86.4,0.4796588,0,858.1288,0,24.67,2.943,187,2.094,2.838,0.1364702,0.043,50.83,58.09,33.5,35.24
"2017-01-10 17:00:00",270163,0.171,73.56,-1.801,88,0,0,857.9876,0,24.69,2.943,190,2.132,2.838,0,0,50.83,58.09,33.5,35.24
"2017-01-10 17:10:00",270164,0.264,34.25,-1.901,89.8,0,0,858.0381,0,24.71,2.944,190,2.145,2.833,0,0,50.83,58.15,33.5,35.25
"2017-01-10 17:20:00",270165,0.157,86.8,-1.944,91.3,0,0,858.0824,0,24.61,2.945,192,2.147,2.821,0,0,50.83,58.15,33.5,35.25
"2017-01-10 17:30:00",270166,0.111,341.4,-2.082,93.4,0,0,858.1309,0,24.21,2.949,172,2.147,2.818,0,0,50.83,58.15,33.5,35.25
"2017-01-10 17:40:00",270167,0.217,254.9,-2.162,97.4,0,0,858.251,0,24.5,2.947,187,2.147,2.811,0,0,50.77,58.15,33.49,35.25
"2017-01-10 17:50:00",270168,0.061,29.91,-2.286,100,0,0,858.3036,0,24.67,2.946,178,2.149,2.762,0,0,50.83,58.09,33.5,35.24
"2017-01-10 18:00:00",270169,0.157,287.2,-2.398,100,0,0,858.3605,0,23.89,2.954,188,2.161,2.774,0,0,50.83,58.15,33.5,35.25
"2017-01-10 18:10:00",270170,0.106,251.5,-2.384,100,0,0,858.4442,0,24.58,2.947,183,2.172,2.78,0,0,50.77,58.15,33.49,35.25
"2017-01-10 18:20:00",270171,0.197,251.2,-2.378,100,0,0,858.664,0,24.83,2.944,176,2.182,2.79,0.003791413,0,50.83,58.15,33.5,35.25
"2017-01-10 18:30:00",270172,0.244,192.6,-2.231,100,0,0,858.6878,0.5,25,2.942,183,2.188,2.798,0.09099441,0,50.83,58.09,33.5,35.24
"2017-01-10 18:40:00",270173,0.44,250.3,-2.315,100,0.007864554,0,858.8525,0,24.77,2.945,177,2.192,2.803,0.03412319,0,50.83,58.15,33.5,35.25
"2017-01-10 18:50:00",270174,0.65,112.1,-2.352,100,0.007865063,0,858.9321,0,25.06,2.943,189,2.201,2.812,0.03033275,0,50.83,58.15,33.5,35.25
"2017-01-10 19:00:00",270175,0.897,252,-2.602,100,0.0629205,0,858.9476,0,25,2.944,190,2.208,2.821,0,0,50.83,58.15,33.5,35.25
"2017-01-10 19:10:00",270176,0.423,187,-2.616,100,0,0,858.965,0,24.57,2.949,186,2.218,2.832,0,0,50.83,58.15,33.5,35.25
"2017-01-10 19:20:00",270177,0.912,289.6,-2.821,100,0.05505924,0,859.1146,0,24.64,2.949,191,2.226,2.846,0,0,50.83,58.15,33.5,35.25
"2017-01-10 19:30:00",270178,0.872,232.3,-2.898,100,0.01573157,0,859.231,0,24.73,2.948,198,2.231,2.866,0,0,50.83,58.15,33.5,35.25
"2017-01-10 19:40:00",270179,0.681,250.2,-2.981,100,0.01573182,0,859.2687,0,24.87,2.948,192,2.228,2.881,0.003792106,0,50.77,58.15,33.49,35.25
"2017-01-10 19:50:00",270180,0.694,277.8,-3.118,100,0,0,859.2707,0.5,24.05,2.957,234,2.224,2.888,0,0,50.83,58.15,33.5,35.25
"2017-01-10 20:00:00",270181,1.12,299.1,-3.307,100,0.0353967,0,859.3419,0,25.21,2.946,189,2.208,2.891,0,0,50.77,58.15,33.49,35.25
"2017-01-10 20:10:00",270182,1.153,282,-3.479,100,0,0,859.4469,0,25.45,2.945,190,2.196,2.909,0,0,50.83,58.15,33.5,35.25
"2017-01-10 20:20:00",270183,1.027,331.7,-3.649,98.6,0,0,859.4944,0,25.4,2.946,192,2.186,2.913,0,0,50.83,58.09,33.5,35.24
"2017-01-10 20:30:00",270184,1.09,329.8,-3.774,97,0,0,859.5537,0,25.35,2.947,192,2.178,2.871,0,0,50.83,58.09,33.5,35.24
"2017-01-10 20:40:00",270185,1.585,299.7,-3.906,95.9,0,0,859.5326,0,24.87,2.953,194,2.158,2.9,0,0,50.83,58.15,33.5,35.25
"2017-01-10 20:50:00",270186,0.731,287.4,-4.004,94.4,0,0,859.6022,0,24.94,2.952,196,2.158,2.88,0.03412917,0,50.83,58.09,33.5,35.24
"2017-01-10 21:00:00",270187,0.701,253.6,-4.02,94,0,0,859.6232,0,24.82,2.954,193,2.168,2.862,0.087219,0,50.83,58.09,33.5,35.24
"2017-01-10 21:10:00",270188,0.787,248.9,-4.153,92.7,0,0,859.5537,0,24.91,2.954,196,2.177,2.845,0,0,50.83,58.09,33.5,35.24
"2017-01-10 21:20:00",270189,0.266,234,-4.229,94.1,0,0,859.6528,0,24.79,2.955,197,2.188,2.843,0.1554773,0,50.83,58.15,33.5,35.25
"2017-01-10 21:30:00",270190,0.294,253.8,-4.296,96.4,0,0,859.6738,0,24.83,2.955,197,2.185,2.843,0.1516852,0,50.77,58.09,33.49,35.24
"2017-01-10 21:40:00",270191,0.298,347.7,-4.346,98.5,0,0,859.6296,0,24.86,2.955,182,2.184,2.841,0.1403088,0,50.83,58.09,33.5,35.24
"2017-01-10 21:50:00",270192,0.793,288.6,-4.485,98.8,0,0,859.657,0,24.88,2.956,190,2.192,2.849,0.01137639,0,50.83,58.09,33.5,35.24
"2017-01-10 22:00:00",270193,1.056,336.6,-4.568,97.9,0.05506156,0,859.4968,0.5,24.75,2.958,196,2.196,2.843,0.0379213,0,50.83,58.09,33.5,35.24
"2017-01-10 22:10:00",270194,0.757,334.8,-4.678,95,0,0,859.5284,0,23.78,2.968,207,2.197,2.845,0,0,50.83,58.09,33.5,35.24
"2017-01-10 22:20:00",270195,1.062,308.7,-4.75,94.4,0,0,859.6633,0,24.42,2.962,200,2.201,2.85,0,0,50.83,58.09,33.5,35.24
"2017-01-10 22:30:00",270196,1.708,305.5,-4.841,92.2,0,0,859.6992,0,26.85,2.938,171,2.211,2.853,0,0,50.83,58.09,33.5,35.24
"2017-01-10 22:40:00",270197,1.514,302.5,-4.937,90.4,0,0,859.7328,0,26.99,2.937,192,2.223,2.862,0.01516852,0,50.83,58.09,33.5,35.24
"2017-01-10 22:50:00",270198,1.245,299.2,-5.077,92.4,0,0,859.6675,0,26.89,2.939,189,2.223,2.876,0,0,50.83,58.09,33.5,35.24
"2017-01-10 23:00:00",270199,0.806,302.3,-5.173,95.3,0,0,859.5074,0.5,27.38,2.934,187,2.23,2.881,0,0,50.83,58.15,33.5,35.25
"2017-01-10 23:10:00",270200,0.879,298,-5.26,96.3,0,0,859.4968,0,27.23,2.936,192,2.233,2.881,0,0,50.83,58.09,33.5,35.24
"2017-01-10 23:20:00",270201,0.636,309.1,-5.284,95.9,0,0,859.4863,0,27.48,2.934,189,2.235,2.883,0.007584261,0,50.83,58.15,33.5,35.25
"2017-01-10 23:30:00",270202,0.413,316.5,-5.268,95.1,0,0,859.4968,0,27.65,2.932,192,2.233,2.883,0.00379213,0,50.83,58.15,33.5,35.25
"2017-01-10 23:40:00",270203,0.414,305.8,-5.271,93.7,0,0,859.4968,0.5,27.87,2.93,192,2.235,2.883,0.1403088,0,50.83,58.15,33.5,35.25
"2017-01-10 23:50:00",270204,0.438,302.7,-5.327,96.2,0,0,859.56,0,28.67,2.922,205,2.232,2.883,0.0379213,0,50.83,58.15,33.5,35.25
